C/2017 D3 ( ATLAS )

Japanese version
Home page
Updated on March 25, 2017

---------------------------------------------------------------------

* Profile

Discovery Date February 23, 2017
Magnitude 18.0 mag
Discoverer Asteroid Terrestrial-impact Last Alert System (ATLAS) Team

* Pictures

* Orbital Elements

Epoch 2017 May 7.0 TT = JDT 2457880.5
T 2017 Apr. 19.46098 TT                                 MPCW
q   4.9690077            (2000.0)            P               Q
z  +0.0033470      Peri.  339.87698     -0.90935960     -0.40510432
 +/-0.0020918      Node   186.67591     -0.17083906     +0.15623360
e   0.9833685      Incl.  125.50801     -0.37931404     +0.90082271
From 77 observations 2017 Feb. 10-Mar. 7, mean residual 0".5.

* Magnitudes Graph

        m1 = 7.5 + 5 log d + 10.0 log r

---------------------------------------------------------------------

The orbital elements are published on M.P.E.C. 2017-E59.
The magnitudes graphs are made with Comet for Windows.

---------------------------------------------------------------------

Copyright(C) Seiichi Yoshida (comet@aerith.net). All rights reserved.